TimePDT,TemperatureF,Dew PointF,Humidity,Sea Level PressureIn,VisibilityMPH,Wind Direction,Wind SpeedMPH,Gust SpeedMPH,PrecipitationIn,Events,Conditions,WindDirDegrees,DateUTC
12:56 AM,55.9,53.1,90,30.14,10.0,NNW,4.6,-,N/A,,Mostly Cloudy,330,2012-09-22 07:56:00
1:56 AM,55.0,52.0,89,30.14,10.0,NW,3.5,-,N/A,,Clear,310,2012-09-22 08:56:00
2:56 AM,51.1,51.1,100,30.14,10.0,Calm,Calm,-,N/A,,Overcast,0,2012-09-22 09:56:00
3:56 AM,54.0,52.0,93,30.15,10.0,Calm,Calm,-,N/A,,Overcast,0,2012-09-22 10:56:00
4:56 AM,54.0,51.1,90,30.16,10.0,Calm,Calm,-,N/A,,Overcast,0,2012-09-22 11:56:00
5:56 AM,54.0,51.1,90,30.16,10.0,Calm,Calm,-,N/A,,Overcast,0,2012-09-22 12:56:00
6:56 AM,52.0,50.0,93,30.17,10.0,Calm,Calm,-,N/A,,Scattered Clouds,0,2012-09-22 13:56:00
7:56 AM,51.1,50.0,96,30.17,10.0,Calm,Calm,-,N/A,,Clear,0,2012-09-22 14:56:00
8:56 AM,55.9,50.0,80,30.18,10.0,North,3.5,-,N/A,,Clear,350,2012-09-22 15:56:00
9:56 AM,60.1,48.0,64,30.17,10.0,Calm,Calm,-,N/A,,Clear,0,2012-09-22 16:56:00
10:56 AM,63.0,46.0,54,30.16,10.0,NNE,6.9,-,N/A,,Clear,30,2012-09-22 17:56:00
12:56 PM,66.0,46.0,48,30.14,10.0,NW,6.9,-,N/A,,Clear,320,2012-09-22 19:56:00
1:56 PM,68.0,45.0,43,30.12,10.0,Calm,Calm,-,N/A,,Clear,0,2012-09-22 20:56:00
2:56 PM,70.0,46.0,42,30.11,10.0,Calm,Calm,-,N/A,,Clear,0,2012-09-22 21:56:00
3:56 PM,70.0,45.0,41,30.10,10.0,NE,5.8,-,N/A,,Clear,40,2012-09-22 22:56:00
4:56 PM,68.0,46.0,45,30.09,10.0,Calm,Calm,-,N/A,,Clear,0,2012-09-22 23:56:00
5:56 PM,66.9,46.0,47,30.09,10.0,SSE,3.5,-,N/A,,Unknown,160,2012-09-23 00:56:00
6:56 PM,64.0,48.9,58,30.09,10.0,NNW,10.4,-,N/A,,Clear,330,2012-09-23 01:56:00
7:56 PM,62.1,50.0,65,30.10,10.0,Calm,Calm,-,N/A,,Clear,0,2012-09-23 02:56:00
8:56 PM,57.9,48.9,72,30.10,10.0,Calm,Calm,-,N/A,,Clear,0,2012-09-23 03:56:00
9:56 PM,57.9,48.9,72,30.10,10.0,Calm,Calm,-,N/A,,Clear,0,2012-09-23 04:56:00
10:56 PM,57.0,48.9,74,30.10,10.0,Calm,Calm,-,N/A,,Clear,0,2012-09-23 05:56:00
11:56 PM,55.9,50.0,80,30.10,10.0,Calm,Calm,-,N/A,,Scattered Clouds,0,2012-09-23 06:56:00